Change the Weather History Date:

Wednesday, November 16, 2011

  Actual Average Record
Temperature  
Mean Temperature 28 °F -  
Max Temperature 32 °F 40 °F 67 °F (1953)
Min Temperature 24 °F 18 °F -6 °F (1933)
Degree Days  
Heating Degree Days 37    
Moisture  
Dew Point 16 °F    
Average Humidity 59    
Maximum Humidity 74    
Minimum Humidity 44    
Precipitation  
Precipitation 0.00 in - - ()
Sea Level Pressure  
Sea Level Pressure 30.00 in    
Wind  
Wind Speed 11 mph (West)    
Max Wind Speed 17 mph    
Max Gust Speed 24 mph    
Visibility 10 miles    
Events      
Averages and records for this station are not official NWS values.
T = Trace of Precipitation, MM = Missing Value Source: NWS Daily Summary

Daily Weather History Graph

Daily Weather History Graph

Search for Another Location

Airport or City:

Trip Planner

Search our weather history database for the weather conditions in past years. The results will help you decide how hot, cold, wet, or windy it might be!

Date:

Astronomy

Nov. 16, 2011 Rise Set
Actual Time 7:14 AM CST 4:40 PM CST
Civil Twilight 6:41 AM CST 5:13 PM CST
Nautical Twilight 6:05 AM CST 5:49 PM CST
Astronomical Twilight 5:30 AM CST 6:24 PM CST
Moon 9:58 PM CST (11/16) 11:49 AM CST (11/16)
Length of Visible Light 10h 31m
Length of Day
9h 26m
Waning Gibbous, 70% of the Moon is Illuminated
Nov 16
Waning Gibbous
Nov 18
Last Quarter
Nov 25
New
Dec 2
First Quarter
Dec 10
Full

Hourly Weather History & Observations

Time (CST) Temp. Windchill Dew Point Humidity Pressure Visibility Wind Dir Wind Speed Gust Speed Precip Events Conditions
12:15 AM 30.2 °F 19.8 °F 19.4 °F 64% 29.86 in 10.0 mi WNW 13.8 mph 21.9 mph N/A   Clear
12:35 AM 30.2 °F 20.8 °F 17.6 °F 60% 29.87 in 10.0 mi WNW 11.5 mph 18.4 mph N/A   Clear
1:15 AM 28.4 °F 19.1 °F 17.6 °F 64% 29.88 in 10.0 mi WNW 10.4 mph 19.6 mph N/A   Clear
1:35 AM 28.4 °F 20.4 °F 17.6 °F 64% 29.89 in 10.0 mi WNW 8.1 mph - N/A   Scattered Clouds
1:55 AM 30.2 °F 21.3 °F 17.6 °F 60% 29.90 in 10.0 mi West 10.4 mph - N/A   Mostly Cloudy
2:14 AM 30.2 °F 22.6 °F 17.6 °F 60% 29.90 in 10.0 mi West 8.1 mph - N/A   Overcast
2:35 AM 30.2 °F 24.3 °F 19.4 °F 64% 29.91 in 10.0 mi West 5.8 mph - N/A   Overcast
2:54 AM 30.2 °F 21.3 °F 19.4 °F 64% 29.91 in 10.0 mi West 10.4 mph - N/A   Overcast
3:15 AM 30.2 °F 22.6 °F 19.4 °F 64% 29.91 in 10.0 mi West 8.1 mph 18.4 mph N/A   Overcast
3:35 AM 28.4 °F 20.4 °F 19.4 °F 69% 29.92 in 10.0 mi WNW 8.1 mph - N/A   Scattered Clouds
3:55 AM 28.4 °F 21.2 °F 19.4 °F 69% 29.92 in 10.0 mi West 6.9 mph - N/A   Mostly Cloudy
4:15 AM 28.4 °F 20.4 °F 17.6 °F 64% 29.92 in 10.0 mi West 8.1 mph - N/A   Mostly Cloudy
4:35 AM 28.4 °F 19.7 °F 15.8 °F 59% 29.93 in 10.0 mi West 9.2 mph 18.4 mph N/A   Scattered Clouds
4:55 AM 26.6 °F 19.1 °F 15.8 °F 64% 29.93 in 10.0 mi West 6.9 mph - N/A   Clear
5:15 AM 26.6 °F 19.1 °F 17.6 °F 69% 29.94 in 10.0 mi West 6.9 mph - N/A   Clear
5:35 AM 26.6 °F 17.5 °F 17.6 °F 69% 29.95 in 10.0 mi West 9.2 mph 17.3 mph N/A   Clear
6:15 AM 24.8 °F 14.6 °F 15.8 °F 69% 29.97 in 10.0 mi West 10.4 mph - N/A   Clear
6:35 AM 24.8 °F 15.3 °F 17.6 °F 74% 29.97 in 10.0 mi West 9.2 mph - N/A   Clear
6:54 AM 24.8 °F 15.3 °F 17.6 °F 74% 29.98 in 10.0 mi West 9.2 mph - N/A   Clear
7:15 AM 24.8 °F 16.1 °F 17.6 °F 74% 29.99 in 10.0 mi WSW 8.1 mph - N/A   Clear
7:34 AM 24.8 °F 14.6 °F 17.6 °F 74% 29.99 in 10.0 mi West 10.4 mph - N/A   Clear
7:55 AM 24.8 °F 14.6 °F 17.6 °F 74% 30.00 in 10.0 mi West 10.4 mph - N/A   Clear
8:15 AM 24.8 °F 14.6 °F 15.8 °F 69% 30.01 in 10.0 mi West 10.4 mph - N/A   Clear
8:35 AM 26.6 °F 16.8 °F 17.6 °F 69% 30.02 in 10.0 mi West 10.4 mph - N/A   Clear
8:55 AM 26.6 °F 16.8 °F 15.8 °F 64% 30.02 in 10.0 mi West 10.4 mph - N/A   Clear
9:15 AM 26.6 °F 13.8 °F 14.0 °F 59% 30.02 in 10.0 mi West 17.3 mph 20.7 mph N/A   Clear
9:34 AM 28.4 °F 17.5 °F 14.0 °F 55% 30.02 in 10.0 mi WNW 13.8 mph 19.6 mph N/A   Clear
9:55 AM 30.2 °F 19.8 °F 15.8 °F 55% 30.03 in 10.0 mi WNW 13.8 mph - N/A   Clear
10:14 AM 30.2 °F 20.8 °F 15.8 °F 55% 30.02 in 10.0 mi WNW 11.5 mph 17.3 mph N/A   Clear
10:35 AM 32.0 °F 22.1 °F 17.6 °F 55% 30.02 in 10.0 mi West 13.8 mph 19.6 mph N/A   Scattered Clouds
10:55 AM 32.0 °F 23.0 °F 17.6 °F 55% 30.02 in 10.0 mi WNW 11.5 mph 21.9 mph N/A   Scattered Clouds
11:15 AM 32.0 °F 22.5 °F 15.8 °F 51% 30.02 in 10.0 mi West 12.7 mph 18.4 mph N/A   Mostly Cloudy
11:35 AM 32.0 °F 23.0 °F 17.6 °F 55% 30.02 in 10.0 mi West 11.5 mph 18.4 mph N/A   Overcast
11:54 AM 32.0 °F 23.6 °F 15.8 °F 51% 30.02 in 10.0 mi WNW 10.4 mph 19.6 mph N/A   Overcast
12:15 PM 32.0 °F 20.8 °F 15.8 °F 51% 30.02 in 10.0 mi West 17.3 mph 23.0 mph N/A   Overcast
12:35 PM 32.0 °F 21.2 °F 14.0 °F 48% 30.01 in 10.0 mi West 16.1 mph 20.7 mph N/A   Overcast
12:54 PM 32.0 °F 23.0 °F 14.0 °F 48% 30.02 in 10.0 mi WNW 11.5 mph 18.4 mph N/A   Overcast
1:15 PM 32.0 °F 22.5 °F 14.0 °F 48% 30.02 in 10.0 mi WNW 12.7 mph 18.4 mph N/A   Overcast
1:35 PM 32.0 °F 21.6 °F 12.2 °F 44% 30.01 in 10.0 mi West 15.0 mph 19.6 mph N/A   Overcast
1:54 PM 30.2 °F 20.2 °F 12.2 °F 47% 30.01 in 10.0 mi West 12.7 mph - N/A   Mostly Cloudy
2:15 PM 32.0 °F 21.6 °F 12.2 °F 44% 30.01 in 10.0 mi West 15.0 mph 24.2 mph N/A   Mostly Cloudy
2:35 PM 30.2 °F 19.3 °F 10.4 °F 44% 30.02 in 10.0 mi West 15.0 mph 23.0 mph N/A   Mostly Cloudy
2:55 PM 32.0 °F 20.8 °F 12.2 °F 44% 30.02 in 10.0 mi West 17.3 mph 24.2 mph N/A   Mostly Cloudy
3:15 PM 30.2 °F 18.9 °F 12.2 °F 47% 30.04 in 10.0 mi West 16.1 mph 21.9 mph N/A   Overcast
3:35 PM 30.2 °F 20.2 °F 12.2 °F 47% 30.05 in 10.0 mi WNW 12.7 mph 18.4 mph N/A   Mostly Cloudy
3:55 PM 28.4 °F 17.0 °F 12.2 °F 51% 30.05 in 10.0 mi West 15.0 mph 21.9 mph N/A   Overcast
4:15 PM 28.4 °F 18.5 °F 12.2 °F 51% 30.06 in 10.0 mi West 11.5 mph 20.7 mph N/A   Overcast
4:35 PM 26.6 °F 15.2 °F 12.2 °F 55% 30.07 in 10.0 mi West 13.8 mph 20.7 mph N/A   Overcast
4:55 PM 26.6 °F 14.7 °F 12.2 °F 55% 30.07 in 10.0 mi West 15.0 mph 21.9 mph N/A   Overcast
5:15 PM 26.6 °F 17.5 °F 12.2 °F 55% 30.08 in 10.0 mi West 9.2 mph 21.9 mph N/A   Overcast
5:35 PM 26.6 °F 16.8 °F 12.2 °F 55% 30.08 in 10.0 mi West 10.4 mph - N/A   Overcast
5:55 PM 26.6 °F 15.7 °F 14.0 °F 59% 30.08 in 10.0 mi West 12.7 mph 18.4 mph N/A   Overcast
6:34 PM 26.6 °F 16.8 °F 14.0 °F 59% 30.09 in 10.0 mi West 10.4 mph 16.1 mph N/A   Overcast
6:55 PM 26.6 °F 15.7 °F 14.0 °F 59% 30.09 in 10.0 mi WNW 12.7 mph 17.3 mph N/A   Overcast
7:35 PM 26.6 °F 14.7 °F 15.8 °F 64% 30.09 in 10.0 mi West 15.0 mph 20.7 mph N/A   Overcast
7:55 PM 26.6 °F 17.5 °F 15.8 °F 64% 30.09 in 10.0 mi WNW 9.2 mph 16.1 mph N/A   Overcast
8:15 PM 26.6 °F 17.5 °F 14.0 °F 59% 30.09 in 10.0 mi WNW 9.2 mph 16.1 mph N/A   Overcast
8:35 PM 26.6 °F 15.2 °F 14.0 °F 59% 30.10 in 10.0 mi WNW 13.8 mph 18.4 mph N/A   Overcast
8:55 PM 26.6 °F 16.2 °F 14.0 °F 59% 30.10 in 10.0 mi WNW 11.5 mph 21.9 mph N/A   Overcast
9:15 PM 26.6 °F 16.2 °F 14.0 °F 59% 30.10 in 10.0 mi West 11.5 mph 18.4 mph N/A   Overcast
9:35 PM 26.6 °F 15.7 °F 14.0 °F 59% 30.10 in 10.0 mi WNW 12.7 mph 18.4 mph N/A   Overcast
9:55 PM 26.6 °F 17.5 °F 15.8 °F 64% 30.10 in 10.0 mi NW 9.2 mph - N/A Snow Light Snow
10:15 PM 24.8 °F 14.0 °F 14.0 °F 64% 30.10 in 10.0 mi WNW 11.5 mph 18.4 mph N/A   Overcast
10:35 PM 24.8 °F 16.1 °F 14.0 °F 64% 30.10 in 10.0 mi WNW 8.1 mph - N/A   Overcast
10:55 PM 24.8 °F 13.4 °F 14.0 °F 64% 30.09 in 10.0 mi WNW 12.7 mph 19.6 mph N/A   Overcast
11:14 PM 24.8 °F 15.3 °F 14.0 °F 64% 30.09 in 10.0 mi West 9.2 mph 16.1 mph N/A   Overcast
11:35 PM 24.8 °F 14.0 °F 14.0 °F 64% 30.09 in 10.0 mi WNW 11.5 mph - N/A   Overcast
11:55 PM 24.8 °F 14.0 °F 12.2 °F 59% 30.10 in 10.0 mi WNW 11.5 mph 18.4 mph N/A   Overcast